User: anonymous   Login
Location: Unspecified
(0.0000°N, 0.0000°E)
Time: 21:27:32
(UTC+00:00)
Language:

PAKSAT 1R - Orbit

View from above orbital plane
View from above orbital plane
View from above satellite
View from above satellite

Ground track
Ground track

The orbit data is extracted from the following two-line orbital elements,

1 37779U 11042A   15244.11690880  .00000127  00000-0  00000+0 0  9999
2 37779   0.0205 117.5545 0002251  41.3909 261.0728  1.00271569 14772
Epoch (UTC): 01 September 2015 02:48:20
Eccentricity: 0.0002251
inclination: 0.0205°
perigee height: 35777 km
apogee height: 35796 km
right ascension of ascending node: 117.5545°
argument of perigee: 41.3909°
revolutions per day: 1.00271569
mean anomaly at epoch: 261.0728°
orbit number at epoch: 1477

The dashed part of the orbit path shows where the satellite is in the earth's shadow,  

DLR